AAL1738 KPHX-KLAX

Flight info

Callsign AAL1738
Flight time 1h 2m
Altitude 36000
Route KEENS3 WLVRN ESTWD HLYWD1
Aircraft A20N/M-SDE2E3FGHIRWXY/LB1

Departure

Time 2026-04-26 03:14
Airport Phoenix Sky Harbor International Airport (KPHX)

Arrival

Time 2026-04-26 04:17
Airport Los Angeles International Airport (KLAX)
Time Latitude Longitude Altitude Speed Heading
2026-04-26 02:57 33.43393 -111.99987 1134 ft 0 kts 85°
2026-04-26 03:07 33.43393 -111.99994 1134 ft 2 kts 85°
2026-04-26 03:07 33.43391 -112.00014 1135 ft 2 kts 110°
2026-04-26 03:08 33.43402 -112.00028 1135 ft 1 kts 176°
2026-04-26 03:08 33.43403 -112.00028 1134 ft 0 kts 176°
2026-04-26 03:10 33.43397 -112.00029 1138 ft 2 kts 188°
2026-04-26 03:11 33.43360 -112.00035 1136 ft 9 kts 184°
2026-04-26 03:11 33.43282 -112.00051 1135 ft 13 kts 197°
2026-04-26 03:11 33.43220 -112.00024 1136 ft 10 kts 113°
2026-04-26 03:11 33.43215 -111.99922 1136 ft 16 kts 90°
2026-04-26 03:12 33.43213 -111.99747 1138 ft 25 kts 90°
2026-04-26 03:12 33.43213 -111.99507 1138 ft 31 kts 89°
2026-04-26 03:12 33.43207 -111.99368 1137 ft 1 kts 132°
2026-04-26 03:13 33.43196 -111.99357 1138 ft 5 kts 143°
2026-04-26 03:13 33.43144 -111.99345 1140 ft 9 kts 184°
2026-04-26 03:13 33.43104 -111.99415 1138 ft 13 kts 268°
2026-04-26 03:14 33.43106 -111.99724 1138 ft 73 kts 270°
2026-04-26 03:14 33.43106 -112.00662 1136 ft 151 kts 270°
2026-04-26 03:14 33.43116 -112.02007 1694 ft 165 kts 273°
2026-04-26 03:14 33.43234 -112.02927 2166 ft 171 kts 279°
2026-04-26 03:15 33.43518 -112.04713 3012 ft 155 kts 279°
2026-04-26 03:15 33.43681 -112.06002 3506 ft 162 kts 277°
2026-04-26 03:15 33.43660 -112.07415 3776 ft 181 kts 250°
2026-04-26 03:15 33.43134 -112.08855 4067 ft 197 kts 246°
2026-04-26 03:16 33.42736 -112.09896 4228 ft 211 kts 245°
2026-04-26 03:16 33.42080 -112.11586 4433 ft 236 kts 245°
2026-04-26 03:16 33.41380 -112.13422 4809 ft 251 kts 244°
2026-04-26 03:16 33.40663 -112.15337 5482 ft 252 kts 244°
2026-04-26 03:17 33.39949 -112.17263 6193 ft 254 kts 243°
2026-04-26 03:17 33.39360 -112.19270 6839 ft 260 kts 255°
2026-04-26 03:17 33.39307 -112.21463 7500 ft 268 kts 272°
2026-04-26 03:17 33.39588 -112.23677 8256 ft 270 kts 276°
2026-04-26 03:18 33.39931 -112.25900 9015 ft 273 kts 276°
2026-04-26 03:18 33.40280 -112.28139 9786 ft 275 kts 276°
2026-04-26 03:18 33.40628 -112.30408 10411 ft 282 kts 276°
2026-04-26 03:18 33.40985 -112.32796 10764 ft 300 kts 276°
2026-04-26 03:19 33.41359 -112.35310 11235 ft 312 kts 276°
2026-04-26 03:19 33.41743 -112.37888 11896 ft 317 kts 276°
2026-04-26 03:19 33.42132 -112.40501 12636 ft 319 kts 276°
2026-04-26 03:19 33.42516 -112.43087 13369 ft 321 kts 275°
2026-04-26 03:20 33.42907 -112.45727 14042 ft 323 kts 275°
2026-04-26 03:20 33.43298 -112.48377 14723 ft 323 kts 275°
2026-04-26 03:20 33.43689 -112.51037 15357 ft 326 kts 275°
2026-04-26 03:20 33.44083 -112.53717 16000 ft 328 kts 275°
2026-04-26 03:21 33.44479 -112.56425 16660 ft 331 kts 275°
2026-04-26 03:21 33.44860 -112.59149 17323 ft 332 kts 272°
2026-04-26 03:21 33.45035 -112.61900 17987 ft 332 kts 268°
2026-04-26 03:21 33.45092 -112.64666 18574 ft 333 kts 267°
2026-04-26 03:22 33.45127 -112.67446 19166 ft 334 kts 266°
2026-04-26 03:22 33.45159 -112.70236 19759 ft 336 kts 266°
2026-04-26 03:22 33.45193 -112.73040 20374 ft 337 kts 266°
2026-04-26 03:22 33.45227 -112.75849 20974 ft 338 kts 266°
2026-04-26 03:23 33.45373 -112.78669 21554 ft 342 kts 272°
2026-04-26 03:23 33.45880 -112.81483 22143 ft 350 kts 281°
2026-04-26 03:23 33.46733 -112.84241 22700 ft 355 kts 285°
2026-04-26 03:23 33.47693 -112.86989 23250 ft 358 kts 285°
2026-04-26 03:24 33.48657 -112.89706 23694 ft 361 kts 285°
2026-04-26 03:24 33.49640 -112.92483 24149 ft 363 kts 285°
2026-04-26 03:24 33.50624 -112.95276 24589 ft 365 kts 285°
2026-04-26 03:24 33.51608 -112.98080 25027 ft 366 kts 285°
2026-04-26 03:25 33.52598 -113.00908 25463 ft 367 kts 284°
2026-04-26 03:25 33.53588 -113.03739 25896 ft 369 kts 284°
2026-04-26 03:25 33.54582 -113.06594 26232 ft 371 kts 284°
2026-04-26 03:25 33.55585 -113.09459 26549 ft 373 kts 284°
2026-04-26 03:26 33.56589 -113.12332 26938 ft 375 kts 284°
2026-04-26 03:26 33.57592 -113.15220 27336 ft 376 kts 284°
2026-04-26 03:26 33.58599 -113.18124 27737 ft 377 kts 284°
2026-04-26 03:26 33.59610 -113.21041 28120 ft 379 kts 284°
2026-04-26 03:27 33.60623 -113.23963 28497 ft 380 kts 283°
2026-04-26 03:27 33.61640 -113.26901 28864 ft 382 kts 283°
2026-04-26 03:27 33.62661 -113.29850 29237 ft 384 kts 283°
2026-04-26 03:27 33.63674 -113.32779 29583 ft 385 kts 283°
2026-04-26 03:28 33.64703 -113.35758 29927 ft 387 kts 283°
2026-04-26 03:28 33.65736 -113.38750 30225 ft 388 kts 283°
2026-04-26 03:28 33.66773 -113.41758 30532 ft 390 kts 283°
2026-04-26 03:28 33.67813 -113.44773 30986 ft 391 kts 283°
2026-04-26 03:29 33.68850 -113.47779 31441 ft 388 kts 283°
2026-04-26 03:29 33.69877 -113.50757 31928 ft 384 kts 282°
2026-04-26 03:29 33.70896 -113.53718 32377 ft 382 kts 282°
2026-04-26 03:29 33.71905 -113.56657 32807 ft 379 kts 282°
2026-04-26 03:30 33.72896 -113.59546 33182 ft 378 kts 282°
2026-04-26 03:30 33.73893 -113.62459 33539 ft 376 kts 282°
2026-04-26 03:30 33.74887 -113.65362 33889 ft 375 kts 281°
2026-04-26 03:30 33.75876 -113.68254 34077 ft 373 kts 281°
2026-04-26 03:31 33.76862 -113.71140 34287 ft 374 kts 282°
2026-04-26 03:31 33.77849 -113.74028 34582 ft 372 kts 282°
2026-04-26 03:31 33.78830 -113.76906 34857 ft 372 kts 282°
2026-04-26 03:31 33.79812 -113.79791 35111 ft 371 kts 282°
2026-04-26 03:32 33.80788 -113.82658 35363 ft 371 kts 282°
2026-04-26 03:32 33.81764 -113.85524 35620 ft 370 kts 282°
2026-04-26 03:32 33.82736 -113.88383 35868 ft 369 kts 282°
2026-04-26 03:32 33.83711 -113.91255 35992 ft 371 kts 282°
2026-04-26 03:33 33.85655 -113.96986 35956 ft 373 kts 282°
2026-04-26 03:33 33.87616 -114.02774 35955 ft 373 kts 282°
2026-04-26 03:34 33.89577 -114.08570 35954 ft 373 kts 281°
2026-04-26 03:34 33.91050 -114.14450 35946 ft 363 kts 273°
2026-04-26 03:35 33.92068 -114.20389 35947 ft 362 kts 272°
2026-04-26 03:35 33.93070 -114.26334 35954 ft 362 kts 272°
2026-04-26 03:36 33.94068 -114.32243 35953 ft 362 kts 272°
2026-04-26 03:36 33.95073 -114.38205 35941 ft 362 kts 272°
2026-04-26 03:37 33.96075 -114.44168 35939 ft 364 kts 272°
2026-04-26 03:37 33.97080 -114.50165 35845 ft 366 kts 272°
2026-04-26 03:38 33.98086 -114.56179 35776 ft 367 kts 272°
2026-04-26 03:38 33.99086 -114.62176 35604 ft 366 kts 272°
2026-04-26 03:39 33.99587 -114.65186 35357 ft 366 kts 272°
2026-04-26 03:39 34.00085 -114.68189 35122 ft 366 kts 272°
2026-04-26 03:39 34.00586 -114.71213 34880 ft 367 kts 272°
2026-04-26 03:39 34.01085 -114.74231 34649 ft 368 kts 272°
2026-04-26 03:40 34.01585 -114.77259 34415 ft 368 kts 271°
2026-04-26 03:40 34.02084 -114.80284 34181 ft 368 kts 271°
2026-04-26 03:40 34.02582 -114.83302 33947 ft 366 kts 271°
2026-04-26 03:40 34.03078 -114.86310 33701 ft 365 kts 271°
2026-04-26 03:41 34.03563 -114.89261 33438 ft 363 kts 271°
2026-04-26 03:41 34.04052 -114.92244 33166 ft 361 kts 271°
2026-04-26 03:41 34.04537 -114.95206 32906 ft 360 kts 271°
2026-04-26 03:41 34.05020 -114.98163 32640 ft 358 kts 271°
2026-04-26 03:42 34.05500 -115.01104 32393 ft 357 kts 271°
2026-04-26 03:42 34.05978 -115.04036 32143 ft 355 kts 271°
2026-04-26 03:42 34.06454 -115.06955 31882 ft 354 kts 271°
2026-04-26 03:42 34.06928 -115.09866 31689 ft 353 kts 271°
2026-04-26 03:43 34.07399 -115.12774 31434 ft 353 kts 271°
2026-04-26 03:43 34.07871 -115.15683 31187 ft 352 kts 271°
2026-04-26 03:43 34.08341 -115.18578 30940 ft 351 kts 271°
2026-04-26 03:43 34.08809 -115.21465 30700 ft 350 kts 271°
2026-04-26 03:44 34.09274 -115.24343 30457 ft 349 kts 271°
2026-04-26 03:44 34.09731 -115.27176 30222 ft 348 kts 271°
2026-04-26 03:44 34.10192 -115.30041 29985 ft 347 kts 271°
2026-04-26 03:44 34.10652 -115.32898 29738 ft 346 kts 271°
2026-04-26 03:45 34.11108 -115.35745 29462 ft 345 kts 271°
2026-04-26 03:45 34.11564 -115.38588 29180 ft 345 kts 271°
2026-04-26 03:45 34.12018 -115.41422 28910 ft 343 kts 271°
2026-04-26 03:45 34.12469 -115.44246 28637 ft 342 kts 271°
2026-04-26 03:46 34.12920 -115.47066 28356 ft 341 kts 271°
2026-04-26 03:46 34.13368 -115.49877 28090 ft 340 kts 271°
2026-04-26 03:46 34.13813 -115.52676 27823 ft 339 kts 272°
2026-04-26 03:47 34.14698 -115.58255 27308 ft 337 kts 272°
2026-04-26 03:47 34.15137 -115.61026 27042 ft 335 kts 272°
2026-04-26 03:47 34.15569 -115.63756 26782 ft 335 kts 272°
2026-04-26 03:47 34.15979 -115.66516 26550 ft 332 kts 270°
2026-04-26 03:48 34.16178 -115.69265 26302 ft 325 kts 264°
2026-04-26 03:48 34.16091 -115.71967 26053 ft 320 kts 259°
2026-04-26 03:48 34.15859 -115.74634 25819 ft 319 kts 257°
2026-04-26 03:48 34.15600 -115.77286 25602 ft 319 kts 257°
2026-04-26 03:49 34.15337 -115.79945 25363 ft 319 kts 257°
2026-04-26 03:49 34.15076 -115.82602 25117 ft 318 kts 257°
2026-04-26 03:49 34.14817 -115.85259 24872 ft 318 kts 257°
2026-04-26 03:49 34.14558 -115.87905 24637 ft 317 kts 257°
2026-04-26 03:50 34.14301 -115.90544 24417 ft 316 kts 257°
2026-04-26 03:50 34.14044 -115.93175 24185 ft 315 kts 257°
2026-04-26 03:50 34.13787 -115.95806 23969 ft 315 kts 257°
2026-04-26 03:50 34.13530 -115.98433 23819 ft 315 kts 257°
2026-04-26 03:51 34.13272 -116.01064 23790 ft 316 kts 257°
2026-04-26 03:51 34.13015 -116.03695 23805 ft 316 kts 257°
2026-04-26 03:51 34.12756 -116.06332 23801 ft 316 kts 257°
2026-04-26 03:51 34.12498 -116.08960 23806 ft 316 kts 257°
2026-04-26 03:52 34.12239 -116.11594 23799 ft 316 kts 257°
2026-04-26 03:52 34.11983 -116.14194 23810 ft 316 kts 257°
2026-04-26 03:52 34.11723 -116.16822 23808 ft 315 kts 257°
2026-04-26 03:52 34.11463 -116.19449 23806 ft 315 kts 257°
2026-04-26 03:53 34.11202 -116.22077 23804 ft 315 kts 257°
2026-04-26 03:53 34.10941 -116.24703 23806 ft 315 kts 257°
2026-04-26 03:53 34.10679 -116.27328 23818 ft 315 kts 257°
2026-04-26 03:53 34.10412 -116.29957 23833 ft 316 kts 257°
2026-04-26 03:54 34.10136 -116.32589 23833 ft 316 kts 257°
2026-04-26 03:54 34.09855 -116.35226 23821 ft 317 kts 257°
2026-04-26 03:54 34.09573 -116.37867 23823 ft 317 kts 257°
2026-04-26 03:54 34.09292 -116.40501 23844 ft 316 kts 257°
2026-04-26 03:55 34.09010 -116.43132 23838 ft 316 kts 257°
2026-04-26 03:55 34.08727 -116.45769 23847 ft 317 kts 257°
2026-04-26 03:55 34.08444 -116.48402 23850 ft 316 kts 257°
2026-04-26 03:55 34.08160 -116.51029 23858 ft 316 kts 257°
2026-04-26 03:56 34.07876 -116.53662 23856 ft 316 kts 257°
2026-04-26 03:56 34.07591 -116.56295 23862 ft 316 kts 257°
2026-04-26 03:56 34.07315 -116.58924 23870 ft 314 kts 258°
2026-04-26 03:56 34.07071 -116.61497 23861 ft 312 kts 258°
2026-04-26 03:57 34.06830 -116.64095 23880 ft 312 kts 258°
2026-04-26 03:57 34.06588 -116.66699 23873 ft 312 kts 258°
2026-04-26 03:57 34.06340 -116.69347 23659 ft 321 kts 258°
2026-04-26 03:57 34.06088 -116.72048 23010 ft 326 kts 258°
2026-04-26 03:58 34.05831 -116.74790 22216 ft 331 kts 258°
2026-04-26 03:58 34.05569 -116.77565 21573 ft 334 kts 258°
2026-04-26 03:58 34.05310 -116.80343 21034 ft 334 kts 258°
2026-04-26 03:58 34.05054 -116.83110 20643 ft 330 kts 258°
2026-04-26 03:59 34.04799 -116.85839 20266 ft 325 kts 259°
2026-04-26 03:59 34.04534 -116.88531 19957 ft 321 kts 257°
2026-04-26 03:59 34.04213 -116.91182 19585 ft 318 kts 256°
2026-04-26 03:59 34.03877 -116.93797 19233 ft 314 kts 256°
2026-04-26 04:00 34.03543 -116.96380 18896 ft 310 kts 256°
2026-04-26 04:00 34.03212 -116.98930 18556 ft 306 kts 256°
2026-04-26 04:00 34.02883 -117.01457 18237 ft 304 kts 256°
2026-04-26 04:00 34.02568 -117.03973 17867 ft 304 kts 257°
2026-04-26 04:01 34.02267 -117.06490 17530 ft 303 kts 257°
2026-04-26 04:01 34.01969 -117.09002 17193 ft 302 kts 257°
2026-04-26 04:01 34.01673 -117.11495 16868 ft 300 kts 257°
2026-04-26 04:01 34.01378 -117.13976 16538 ft 298 kts 258°
2026-04-26 04:02 34.01085 -117.16443 16212 ft 296 kts 258°
2026-04-26 04:02 34.00793 -117.18889 15940 ft 294 kts 259°
2026-04-26 04:02 34.00503 -117.21318 15623 ft 292 kts 259°
2026-04-26 04:02 34.00215 -117.23733 15303 ft 290 kts 259°
2026-04-26 04:03 34.00025 -117.25320 15091 ft 289 kts 260°
2026-04-26 04:03 33.99651 -117.28488 14670 ft 287 kts 259°
2026-04-26 04:03 33.99366 -117.30868 14347 ft 286 kts 259°
2026-04-26 04:03 33.99085 -117.33232 14023 ft 285 kts 260°
2026-04-26 04:04 33.98807 -117.35586 13704 ft 283 kts 260°
2026-04-26 04:04 33.98532 -117.37924 13372 ft 281 kts 260°
2026-04-26 04:04 33.98346 -117.39500 13170 ft 281 kts 260°
2026-04-26 04:04 33.98073 -117.41826 12848 ft 280 kts 260°
2026-04-26 04:05 33.97801 -117.44121 12546 ft 280 kts 260°
2026-04-26 04:05 33.97526 -117.46443 12235 ft 280 kts 260°
2026-04-26 04:05 33.97299 -117.48777 11906 ft 280 kts 265°
2026-04-26 04:05 33.97268 -117.51119 11578 ft 279 kts 268°
2026-04-26 04:06 33.97299 -117.53459 11239 ft 279 kts 269°
2026-04-26 04:06 33.97340 -117.55799 10930 ft 278 kts 269°
2026-04-26 04:06 33.97379 -117.58124 10578 ft 277 kts 269°
2026-04-26 04:06 33.97417 -117.60438 10246 ft 275 kts 269°
2026-04-26 04:07 33.97453 -117.62709 10050 ft 267 kts 269°
2026-04-26 04:07 33.97487 -117.64920 10016 ft 262 kts 269°
2026-04-26 04:07 33.97519 -117.67125 10011 ft 264 kts 269°
2026-04-26 04:07 33.97550 -117.69306 10014 ft 264 kts 269°
2026-04-26 04:08 33.97581 -117.71511 10009 ft 264 kts 269°
2026-04-26 04:08 33.97611 -117.73726 10010 ft 264 kts 269°
2026-04-26 04:08 33.97642 -117.75940 10005 ft 264 kts 269°
2026-04-26 04:08 33.97672 -117.78143 9844 ft 262 kts 269°
2026-04-26 04:09 33.97701 -117.80344 9313 ft 265 kts 269°
2026-04-26 04:09 33.97732 -117.82577 8759 ft 268 kts 269°
2026-04-26 04:09 33.97761 -117.84816 8382 ft 265 kts 269°
2026-04-26 04:09 33.97787 -117.87024 8070 ft 261 kts 269°
2026-04-26 04:10 33.97817 -117.89203 7990 ft 260 kts 269°
2026-04-26 04:10 33.97848 -117.91386 7986 ft 261 kts 269°
2026-04-26 04:10 33.97874 -117.93578 7988 ft 262 kts 269°
2026-04-26 04:10 33.97899 -117.95743 7993 ft 262 kts 269°
2026-04-26 04:11 33.97924 -117.97936 7991 ft 262 kts 269°
2026-04-26 04:11 33.97950 -118.00134 7995 ft 262 kts 269°
2026-04-26 04:11 33.97974 -118.02332 7993 ft 262 kts 269°
2026-04-26 04:11 33.97999 -118.04524 7797 ft 262 kts 269°
2026-04-26 04:12 33.98015 -118.06729 7229 ft 267 kts 269°
2026-04-26 04:12 33.98091 -118.09007 6484 ft 278 kts 274°
2026-04-26 04:12 33.98081 -118.11379 5631 ft 290 kts 264°
2026-04-26 04:12 33.97836 -118.13838 4784 ft 299 kts 263°
2026-04-26 04:13 33.97585 -118.16333 4224 ft 298 kts 263°
2026-04-26 04:13 33.97337 -118.18761 4033 ft 283 kts 263°
2026-04-26 04:13 33.97126 -118.21013 4002 ft 257 kts 264°
2026-04-26 04:13 33.96947 -118.23034 3984 ft 227 kts 264°
2026-04-26 04:14 33.96789 -118.24784 3989 ft 194 kts 264°
2026-04-26 04:14 33.96637 -118.26327 3636 ft 185 kts 263°
2026-04-26 04:14 33.96469 -118.27888 3001 ft 190 kts 262°
2026-04-26 04:14 33.96286 -118.29454 2428 ft 186 kts 262°
2026-04-26 04:15 33.96109 -118.30962 1980 ft 178 kts 263°
2026-04-26 04:15 33.96006 -118.32421 1517 ft 172 kts 264°
2026-04-26 04:15 33.95869 -118.33832 1144 ft 163 kts 261°
2026-04-26 04:15 33.95735 -118.35114 986 ft 150 kts 263°
2026-04-26 04:16 33.95628 -118.36336 750 ft 145 kts 264°
2026-04-26 04:16 33.95496 -118.37515 606 ft 137 kts 262°
2026-04-26 04:16 33.95356 -118.38620 397 ft 129 kts 263°
2026-04-26 04:16 33.95266 -118.39673 237 ft 123 kts 263°
2026-04-26 04:17 33.95161 -118.40674 126 ft 112 kts 264°
2026-04-26 04:17 33.95089 -118.41397 124 ft 42 kts 263°
2026-04-26 04:17 33.95061 -118.41642 124 ft 27 kts 259°
2026-04-26 04:17 33.94987 -118.41846 125 ft 27 kts 235°
2026-04-26 04:18 33.94874 -118.42030 127 ft 28 kts 233°
2026-04-26 04:18 33.94757 -118.42215 127 ft 25 kts 233°
2026-04-26 04:18 33.94706 -118.42261 128 ft 5 kts 123°
2026-04-26 04:18 33.94689 -118.42183 125 ft 10 kts 93°
2026-04-26 04:19 33.94691 -118.42163 126 ft 0 kts 83°
2026-04-26 04:20 33.94694 -118.42134 128 ft 9 kts 82°
2026-04-26 04:20 33.94706 -118.42011 129 ft 20 kts 83°
2026-04-26 04:20 33.94716 -118.41850 125 ft 11 kts 109°
2026-04-26 04:21 33.94658 -118.41810 127 ft 11 kts 134°
2026-04-26 04:21 33.94657 -118.41690 129 ft 19 kts 81°
2026-04-26 04:21 33.94675 -118.41500 127 ft 26 kts 84°
2026-04-26 04:21 33.94610 -118.41373 126 ft 20 kts 176°
2026-04-26 04:22 33.94471 -118.41349 125 ft 21 kts 177°
2026-04-26 04:22 33.94321 -118.41330 127 ft 23 kts 173°
2026-04-26 04:22 33.94160 -118.41304 126 ft 24 kts 173°
2026-04-26 04:22 33.93990 -118.41281 126 ft 21 kts 173°
2026-04-26 04:23 33.93975 -118.41279 126 ft 0 kts 173°
2026-04-26 04:23 33.93955 -118.41276 128 ft 8 kts 173°
2026-04-26 04:23 33.93866 -118.41262 127 ft 18 kts 173°
2026-04-26 04:24 33.93756 -118.41202 125 ft 21 kts 93°
2026-04-26 04:24 33.93777 -118.40992 129 ft 30 kts 83°
2026-04-26 04:24 33.93803 -118.40729 127 ft 33 kts 83°
2026-04-26 04:24 33.93842 -118.40523 125 ft 14 kts 18°
2026-04-26 04:25 33.93932 -118.40538 126 ft 15 kts 354°
2026-04-26 04:25 33.94020 -118.40520 124 ft 7 kts 61°
2026-04-26 04:25 33.94024 -118.40491 127 ft 0 kts 83°